TimeHST,TemperatureF,Dew PointF,Humidity,Sea Level PressureIn,VisibilityMPH,Wind Direction,Wind SpeedMPH,Gust SpeedMPH,PrecipitationIn,Events,Conditions,WindDirDegrees,DateUTC
12:53 AM,73.0,63.0,71,30.04,10.0,ESE,6.9,-,N/A,,Clear,120,2012-05-07 10:53:00
1:53 AM,73.0,64.0,73,30.03,10.0,SE,8.1,-,N/A,,Clear,130,2012-05-07 11:53:00
2:53 AM,73.0,64.0,73,30.04,10.0,East,6.9,-,N/A,,Clear,100,2012-05-07 12:53:00
3:53 AM,73.0,63.0,71,30.04,10.0,East,5.8,-,N/A,,Mostly Cloudy,90,2012-05-07 13:53:00
4:53 AM,71.1,61.0,70,30.04,10.0,NE,4.6,-,N/A,,Partly Cloudy,50,2012-05-07 14:53:00
5:04 AM,69.8,60.8,73,30.04,10.0,ENE,4.6,-,N/A,,Mostly Cloudy,60,2012-05-07 15:04:00
5:19 AM,71.6,60.8,69,30.04,10.0,ENE,4.6,-,N/A,,Scattered Clouds,70,2012-05-07 15:19:00
5:53 AM,70.0,62.1,76,30.06,10.0,ENE,4.6,-,N/A,,Clear,60,2012-05-07 15:53:00
6:53 AM,73.0,60.1,64,30.07,10.0,NE,4.6,-,N/A,,Clear,50,2012-05-07 16:53:00
7:53 AM,78.1,62.1,58,30.09,10.0,East,5.8,-,N/A,,Scattered Clouds,100,2012-05-07 17:53:00
8:53 AM,79.0,60.1,52,30.09,10.0,NW,5.8,-,N/A,,Mostly Cloudy,310,2012-05-07 18:53:00
9:53 AM,78.1,64.9,64,30.09,10.0,South,9.2,-,N/A,,Mostly Cloudy,190,2012-05-07 19:53:00
10:53 AM,80.1,64.0,58,30.09,10.0,South,11.5,-,N/A,,Mostly Cloudy,180,2012-05-07 20:53:00
11:53 AM,82.0,66.0,58,30.08,10.0,South,12.7,-,N/A,,Partly Cloudy,180,2012-05-07 21:53:00
12:53 PM,82.0,66.0,58,30.06,10.0,SSW,12.7,-,N/A,,Clear,200,2012-05-07 22:53:00
1:53 PM,82.0,66.0,58,30.06,10.0,SSW,12.7,-,N/A,,Partly Cloudy,210,2012-05-07 23:53:00
2:53 PM,81.0,64.9,58,30.05,10.0,SW,8.1,-,N/A,,Mostly Cloudy,220,2012-05-08 00:53:00
3:53 PM,80.1,64.9,60,30.03,10.0,SW,8.1,-,N/A,,Partly Cloudy,230,2012-05-08 01:53:00
4:53 PM,79.0,64.9,62,30.02,10.0,West,6.9,-,N/A,,Partly Cloudy,280,2012-05-08 02:53:00
5:53 PM,79.0,64.0,60,30.01,10.0,WNW,8.1,-,N/A,,Mostly Cloudy,290,2012-05-08 03:53:00
6:53 PM,78.1,64.0,62,30.02,10.0,NW,5.8,-,N/A,,Clear,310,2012-05-08 04:53:00
7:53 PM,77.0,64.9,66,30.04,10.0,South,6.9,-,N/A,,Clear,170,2012-05-08 05:53:00
8:53 PM,77.0,64.9,66,30.07,10.0,SSE,11.5,-,N/A,,Clear,160,2012-05-08 06:53:00
9:53 PM,75.9,66.0,71,30.08,10.0,SSE,9.2,-,N/A,,Clear,160,2012-05-08 07:53:00
10:53 PM,73.9,64.9,73,30.09,10.0,ESE,4.6,-,N/A,,Clear,120,2012-05-08 08:53:00
11:53 PM,73.9,64.0,71,30.09,10.0,ESE,9.2,-,N/A,,Clear,120,2012-05-08 09:53:00